Powrót do katalogu

STARLINK-33809

AktywnyŁącznośćVLEO
NORAD 63508·PAYLOAD·🇺🇸 United States

Wystrzelony Apr 7, 2025 z Vandenberg Space Force Base

Loading…

Następne Przeloty (najbliższe 24 godziny)

TLE

ŚwieżeSource: CelesTrak SupGP

Epoka: Sep 15, 2026, 03:36 UTC

1 63508C 25071R   26258.15048611  .00060273  00000+0  17802-2 0  2581
2 63508  53.1577 338.4742 0001250  95.8674  17.7861 15.34371008    13

Śledź STARLINK-33809 w czasie rzeczywistym z AllMySat

Download on the App Store